Hourly Data Report for June 24, 2018

LONDON CS
ONTARIO
Current Station Operator: ECCC - MSC

43°02'00.000" N
81°09'00.000" W
278.00 m
6144478
71622
WSN

Download Data

Hourly Data (June 2018)
Hourly Data Report for June 24, 2018
TIME Temp Definition
°C
Dew Point Definition
°C
Rel Hum Definition
%
Wind Dir Definition
10's deg

Wind Spd Definition
km/h
Visibility Definition
km
Stn Press Definition
kPa
Hmdx Definition


Wind Chill Definition


Weather Definition


00:00 18.4 17.7 96 LegendMM LegendMM   97.57     LegendNANA
01:00 18.6 18.1 96 LegendMM LegendMM   97.56     LegendNANA
02:00 18.5 18.0 97 LegendMM LegendMM   97.53     LegendNANA
03:00 18.5 18.0 97 LegendMM LegendMM   97.56     LegendNANA
04:00 18.4 17.9 97 LegendMM LegendMM   97.56     LegendNANA
05:00 18.3 17.9 97 LegendMM LegendMM   97.58     LegendNANA
06:00 18.2 17.8 98 LegendMM LegendMM   97.58     LegendNANA
07:00 17.9 17.4 97 LegendMM LegendMM   97.64     LegendNANA
08:00 18.1 17.4 96 LegendMM LegendMM   97.69     LegendNANA
09:00 19.1 18.0 93 LegendMM LegendMM   97.71     LegendNANA
10:00 19.9 18.1 90 LegendMM LegendMM   97.77     LegendNANA
11:00 19.9 18.4 91 LegendMM LegendMM   97.81     LegendNANA
12:00 18.1 17.1 94 LegendMM LegendMM   97.89     LegendNANA
13:00 18.1 17.1 94 LegendMM LegendMM   97.92     LegendNANA
14:00 18.7 17.0 90 LegendMM LegendMM   97.98     LegendNANA
15:00 19.2 16.9 86 LegendMM LegendMM   98.08     LegendNANA
16:00 20.4 16.6 79 LegendMM LegendMM   98.15 25   LegendNANA
17:00 21.2 16.0 72 LegendMM LegendMM   98.16 26   LegendNANA
18:00 20.7 16.0 74 LegendMM LegendMM   98.25 25   LegendNANA
19:00 20.5 15.9 75 LegendMM LegendMM   98.27 25   LegendNANA
20:00 18.7 15.5 82 LegendMM LegendMM   98.31     LegendNANA
21:00 18.4 15.4 82 LegendMM LegendMM   98.40     LegendNANA
22:00 17.0 15.2 90 LegendMM LegendMM   98.45     LegendNANA
23:00 16.1 14.7 91 LegendMM LegendMM   98.51     LegendNANA

Notes on Data Quality.

Legend

  • E = Estimated
  • M = Missing
  • NA = Not Available*
  • [empty] = Indicates an unobserved value
Date modified: